Waseca, MN

2:50 AM CDT on June 25, 2017 (GMT -0500)
Waseca Municipal

Weather History for KACQ - October, 2012

Change the Weather History Date:

Tuesday, October 23, 2012

  Actual Average Record
Temperature  
Mean Temperature 64 °F -  
Max Temperature 68 °F 57 °F 84 °F (1927)
Min Temperature 59 °F 35 °F 8 °F (1936)
Degree Days  
Heating Degree Days 2    
Growing Degree Days 14 (Base 50)    
Moisture  
Dew Point 56 °F    
Average Humidity 76    
Maximum Humidity 88    
Minimum Humidity 64    
Precipitation  
Precipitation 0.00 in - - ()
Sea Level Pressure  
Sea Level Pressure 29.77 in    
Wind  
Wind Speed 11 mph (SSE)    
Max Wind Speed 17 mph    
Max Gust Speed 24 mph    
Visibility 5 miles    
Events Thunderstorm    
Averages and records for this station are not official NWS values.
T = Trace of Precipitation, MM = Missing Value Source: NWS Daily Summary

Daily Weather History Graph

Daily Weather History Graph

Search for Another Location

Airport or City:

Trip Planner

Search our weather history database for the weather conditions in past years. The results will help you decide how hot, cold, wet, or windy it might be!

Date:

Astronomy

Oct. 23, 2012 Rise Set
Actual Time 7:39 AM CDT 6:16 PM CDT
Civil Twilight 7:10 AM CDT 6:46 PM CDT
Nautical Twilight 6:36 AM CDT 7:19 PM CDT
Astronomical Twilight 6:02 AM CDT 7:53 PM CDT
Moon 3:11 PM CDT (10/23) 1:20 AM CDT (10/23)
Length of Visible Light 11h 35m
Length of Day
10h 36m
Waxing Gibbous, 67% of the Moon is Illuminated
Oct 23
Waxing Gibbous
Oct 29
Full
Nov 6
Last Quarter
Nov 13
New
Nov 20
First Quarter

Hourly Weather History & Observations

Time (CDT) Temp. Dew Point Humidity Pressure Visibility Wind Dir Wind Speed Gust Speed Precip Events Conditions
12:13 AM 59.0 °F 51.8 °F 77% 29.84 in 7.0 mi East 10.4 mph - N/A   Overcast
12:33 AM 59.0 °F 51.8 °F 77% 29.84 in 7.0 mi East 12.7 mph 17.3 mph N/A   Overcast
12:53 AM 59.0 °F 53.6 °F 82% 29.84 in 5.0 mi East 9.2 mph - N/A   Haze
1:12 AM 59.0 °F 53.6 °F 82% 29.82 in 5.0 mi ENE 9.2 mph - N/A   Haze
1:33 AM 59.0 °F 53.6 °F 82% 29.82 in 5.0 mi East 10.4 mph - N/A   Haze
1:53 AM 59.0 °F 53.6 °F 82% 29.81 in 5.0 mi East 11.5 mph - N/A   Haze
2:13 AM 60.8 °F 53.6 °F 77% 29.81 in 5.0 mi East 12.7 mph - N/A   Haze
2:33 AM 60.8 °F 55.4 °F 82% 29.80 in 5.0 mi East 11.5 mph - N/A   Haze
2:52 AM 62.6 °F 55.4 °F 77% 29.80 in 4.0 mi East 13.8 mph 18.4 mph N/A   Haze
3:13 AM 62.6 °F 55.4 °F 77% 29.78 in 4.0 mi East 12.7 mph - N/A   Haze
3:33 AM 62.6 °F 55.4 °F 77% 29.78 in 4.0 mi East 12.7 mph 17.3 mph N/A Thunderstorm Haze
3:53 AM 62.6 °F 55.4 °F 77% 29.77 in 3.0 mi East 13.8 mph - N/A   Haze
4:13 AM 62.6 °F 57.2 °F 82% 29.77 in 3.0 mi East 12.7 mph - N/A   Haze
4:33 AM 62.6 °F 57.2 °F 82% 29.78 in 3.0 mi ESE 11.5 mph - N/A   Haze
4:53 AM 62.6 °F 57.2 °F 82% 29.77 in 2.0 mi East 12.7 mph - N/A   Haze
5:13 AM 62.6 °F 57.2 °F 82% 29.77 in 1.5 mi East 11.5 mph - N/A   Haze
5:33 AM 62.6 °F 57.2 °F 82% 29.77 in 1.8 mi ESE 12.7 mph - N/A   Haze
5:52 AM 62.6 °F 57.2 °F 82% 29.76 in 2.0 mi East 13.8 mph - N/A   Haze
6:33 AM 62.6 °F 57.2 °F 82% 29.76 in 2.0 mi ESE 10.4 mph - N/A   Haze
6:52 AM 62.6 °F 57.2 °F 82% 29.76 in 2.0 mi ESE 10.4 mph - N/A   Haze
7:13 AM 62.6 °F 57.2 °F 82% 29.76 in 2.5 mi ESE 6.9 mph - N/A   Haze
7:33 AM 62.6 °F 57.2 °F 82% 29.76 in 4.0 mi SE 8.1 mph - N/A   Haze
7:53 AM 62.6 °F 59.0 °F 88% 29.75 in 3.0 mi SE 9.2 mph - N/A   Overcast
8:13 AM 62.6 °F 59.0 °F 88% 29.76 in 2.5 mi SE 9.2 mph - N/A   Overcast
8:32 AM 62.6 °F 57.2 °F 82% 29.77 in 3.0 mi SSE 11.5 mph - N/A   Haze
8:53 AM 62.6 °F 57.2 °F 82% 29.77 in 5.0 mi South 13.8 mph 17.3 mph N/A   Haze
9:13 AM 62.6 °F 57.2 °F 82% 29.77 in 5.0 mi SSE 10.4 mph - N/A   Haze
9:33 AM 62.6 °F 57.2 °F 82% 29.77 in 5.0 mi South 13.8 mph - N/A   Haze
10:12 AM 64.4 °F 57.2 °F 77% 29.77 in 5.0 mi South 17.3 mph 23.0 mph N/A   Haze
10:53 AM 64.4 °F 55.4 °F 73% 29.77 in 5.0 mi South 16.1 mph 23.0 mph N/A   Haze
11:13 AM 64.4 °F 53.6 °F 68% 29.76 in 5.0 mi South 17.3 mph - N/A   Haze
11:32 AM 64.4 °F 53.6 °F 68% 29.77 in 5.0 mi South 17.3 mph 21.9 mph N/A   Haze
11:53 AM 64.4 °F 53.6 °F 68% 29.76 in 5.0 mi South 16.1 mph 21.9 mph N/A   Haze
12:12 PM 64.4 °F 53.6 °F 68% 29.76 in 5.0 mi South 16.1 mph 24.2 mph N/A   Haze
12:33 PM 64.4 °F 55.4 °F 73% 29.76 in 5.0 mi SSW 16.1 mph 23.0 mph N/A   Haze
12:52 PM 68.0 °F 55.4 °F 64% 29.75 in 5.0 mi SSW 16.1 mph - N/A   Haze
1:13 PM 68.0 °F 55.4 °F 64% 29.74 in 7.0 mi SSW 17.3 mph 23.0 mph N/A   Overcast
1:33 PM 68.0 °F 55.4 °F 64% 29.73 in 7.0 mi SSW 16.1 mph - N/A   Overcast
1:52 PM 68.0 °F 55.4 °F 64% 29.72 in 7.0 mi SSW 16.1 mph - N/A   Overcast
2:13 PM 64.4 °F 55.4 °F 73% 29.73 in 7.0 mi SSW 17.3 mph - N/A   Overcast
2:33 PM 64.4 °F 55.4 °F 73% 29.72 in 7.0 mi South 16.1 mph 19.6 mph N/A   Overcast
2:52 PM 66.2 °F 55.4 °F 68% 29.72 in 7.0 mi South 16.1 mph - N/A   Overcast
3:13 PM 66.2 °F 55.4 °F 68% 29.71 in 7.0 mi SSW 13.8 mph - N/A   Overcast
3:33 PM 64.4 °F 55.4 °F 73% 29.72 in 5.0 mi SSW 13.8 mph - N/A   Haze
3:53 PM 64.4 °F 55.4 °F 73% 29.72 in 7.0 mi SSW 10.4 mph - N/A   Overcast
4:13 PM 64.4 °F 55.4 °F 73% 29.73 in 7.0 mi SSW 12.7 mph - N/A   Overcast
4:33 PM 64.4 °F 55.4 °F 73% 29.73 in 7.0 mi SSW 9.2 mph - N/A   Overcast
4:52 PM 64.4 °F 55.4 °F 73% 29.74 in 7.0 mi SSW 9.2 mph - N/A   Overcast
5:13 PM 64.4 °F 55.4 °F 73% 29.74 in 7.0 mi SSW 8.1 mph - N/A   Overcast
5:33 PM 64.4 °F 55.4 °F 73% 29.74 in 7.0 mi SSW 5.8 mph - N/A   Overcast
5:53 PM 64.4 °F 55.4 °F 73% 29.73 in 7.0 mi South 5.8 mph - N/A   Overcast
6:12 PM 64.4 °F 55.4 °F 73% 29.74 in 7.0 mi SSE 3.5 mph - N/A   Overcast
6:33 PM 64.4 °F 55.4 °F 73% 29.74 in 7.0 mi SSE 4.6 mph - N/A   Overcast
6:53 PM 64.4 °F 55.4 °F 73% 29.76 in 7.0 mi Calm Calm - N/A   Overcast
7:13 PM 64.4 °F 55.4 °F 73% 29.77 in 7.0 mi WSW 3.5 mph - N/A   Overcast
7:33 PM 64.4 °F 55.4 °F 73% 29.77 in 7.0 mi Calm Calm - N/A   Overcast
7:53 PM 64.4 °F 55.4 °F 73% 29.78 in 7.0 mi Calm Calm - N/A   Overcast
8:12 PM 62.6 °F 55.4 °F 77% 29.77 in 7.0 mi Calm Calm - N/A   Overcast
8:33 PM 62.6 °F 55.4 °F 77% 29.78 in 7.0 mi Calm Calm - N/A   Overcast
8:53 PM 62.6 °F 55.4 °F 77% 29.77 in 5.0 mi Calm Calm - N/A   Haze
9:13 PM 62.6 °F 55.4 °F 77% 29.77 in 5.0 mi ESE 4.6 mph - N/A   Haze
9:33 PM 62.6 °F 55.4 °F 77% 29.78 in 5.0 mi East 3.5 mph - N/A   Haze
9:53 PM 62.6 °F 55.4 °F 77% 29.79 in 5.0 mi ESE 3.5 mph - N/A   Haze
10:33 PM 62.6 °F 55.4 °F 77% 29.79 in 5.0 mi East 3.5 mph - N/A   Haze
10:52 PM 62.6 °F 55.4 °F 77% 29.80 in 5.0 mi Calm Calm - N/A   Haze
11:13 PM 62.6 °F 55.4 °F 77% 29.81 in 5.0 mi WNW 10.4 mph - N/A   Haze
11:32 PM 62.6 °F 55.4 °F 77% 29.81 in 7.0 mi NW 6.9 mph - N/A   Overcast
11:52 PM 62.6 °F 53.6 °F 72% 29.81 in 7.0 mi NNW 5.8 mph - N/A   Overcast